Weather History for Elkins, WV

Change the Weather History Date:

Friday, August 2, 2013

  Actual Average Record
Temperature  
Mean Temperature 69 °F 70 °F  
Max Temperature 78 °F 81 °F 94 °F (1995)
Min Temperature 59 °F 59 °F 46 °F (1998)
Degree Days  
Heating Degree Days 0 0  
Month to date heating degree days 0 0  
Since 1 June heating degree days 16 67  
Since 1 July heating degree days 4 12  
Cooling Degree Days 4 5  
Month to date cooling degree days 8 10  
Year to date cooling degree days 338 291  
Since 1 June cooling degree days 313 268  
Growing Degree Days 18 (Base 50)    
Moisture  
Dew Point 58 °F    
Average Humidity 72    
Maximum Humidity 97    
Minimum Humidity 47    
Precipitation  
Precipitation 0.00 in 0.15 in 2.09 in (1921)
Month to date precipitation 0.10 0.29  
Year to date precipitation 24.98 29.26  
Snow  
Snow 0.00 in - - ()
Month to date snowfall 0.0  
Since 1 September snowfall 77.5  
Snow Depth 0.00 in    
Sea Level Pressure  
Sea Level Pressure 30.03 in    
Wind  
Wind Speed 3 mph (West)    
Max Wind Speed 14 mph    
Max Gust Speed 18 mph    
Visibility 7 miles    
Events      
T = Trace of Precipitation, MM = Missing Value Source: NWS Daily Summary

Daily Weather History Graph

Daily Weather History Graph

Search for Another Location

Airport:

Trip Planner

Search our weather history database for the weather conditions in past years. The results will help you decide how hot, cold, wet, or windy it might be!

Date:

Astronomy

Aug. 02, 2013 Rise Set
Actual Time 6:21 AM EDT 8:29 PM EDT
Civil Twilight 5:51 AM EDT 8:58 PM EDT
Nautical Twilight 5:15 AM EDT 9:34 PM EDT
Astronomical Twilight 4:36 AM EDT 10:13 PM EDT
Moon 2:41 AM EDT (8/2) 5:25 PM EDT (8/2)
Length of Visible Light 15h 06m
Length of Day
14h 07m
Waning Crescent, 16% of the Moon is Illuminated
Aug 2
Waning Crescent
Aug 6
New
Aug 14
First Quarter
Aug 20
Full
Aug 28
Last Quarter

Hourly Weather History & Observations

Time (EDT) Temp. Dew Point Humidity Pressure Visibility Wind Dir Wind Speed Gust Speed Precip Events Conditions
12:08 AM 59.0 °F 57.2 °F 94% 30.02 in 1.2 mi Calm Calm - N/A   Partly Cloudy
12:25 AM 59.0 °F 57.2 °F 94% 30.02 in 3.0 mi Calm Calm - N/A   Partly Cloudy
12:44 AM 60.8 °F 57.2 °F 88% 30.02 in 2.0 mi Calm Calm - N/A   Mostly Cloudy
12:48 AM 59.0 °F 57.2 °F 94% 30.02 in 2.5 mi Calm Calm - N/A   Mostly Cloudy
12:51 AM 59.0 °F 57.0 °F 93% 30.01 in 2.5 mi Calm Calm - N/A   Mostly Cloudy
1:04 AM 59.0 °F 57.2 °F 94% 30.02 in 1.5 mi Calm Calm - N/A   Overcast
1:32 AM 59.0 °F 57.2 °F 94% 30.02 in 1.5 mi Calm Calm - N/A   Overcast
1:38 AM 60.8 °F 57.2 °F 88% 30.01 in 3.0 mi Calm Calm - N/A   Overcast
1:51 AM 59.0 °F 57.9 °F 96% 30.00 in 4.0 mi Calm Calm - N/A   Mostly Cloudy
2:22 AM 59.0 °F 57.2 °F 94% 30.00 in 2.5 mi Calm Calm - N/A   Mostly Cloudy
2:32 AM 60.8 °F 59.0 °F 94% 30.00 in 4.0 mi Calm Calm - N/A   Mostly Cloudy
2:51 AM 60.1 °F 59.0 °F 96% 29.99 in 4.0 mi Calm Calm - N/A   Overcast
4:31 AM 60.8 °F 59.0 °F 94% 30.02 in 1.5 mi Calm Calm - N/A   Overcast
4:51 AM 60.1 °F 59.0 °F 96% 29.99 in 2.0 mi Calm Calm - N/A   Overcast
5:00 AM 60.8 °F 59.0 °F 94% 30.02 in 4.0 mi Calm Calm - N/A   Overcast
5:51 AM 60.1 °F 59.0 °F 96% 30.02 in 8.0 mi Calm Calm - N/A   Overcast
6:48 AM 60.8 °F 57.2 °F 88% 30.04 in 10.0 mi Calm Calm - N/A   Mostly Cloudy
6:51 AM 60.1 °F 57.9 °F 93% 30.03 in 10.0 mi Calm Calm - N/A   Mostly Cloudy
7:51 AM 61.0 °F 59.0 °F 93% 30.06 in 10.0 mi Calm Calm - N/A   Mostly Cloudy
8:51 AM 66.0 °F 61.0 °F 84% 30.04 in 10.0 mi Calm Calm - N/A   Scattered Clouds
9:26 AM 69.8 °F 60.8 °F 73% 30.06 in 10.0 mi NW 4.6 mph - N/A   Mostly Cloudy
9:51 AM 69.1 °F 60.1 °F 73% 30.05 in 10.0 mi Calm Calm - N/A   Mostly Cloudy
10:13 AM 71.6 °F 60.8 °F 69% 30.06 in 10.0 mi Variable 3.5 mph - N/A   Scattered Clouds
10:51 AM 72.0 °F 59.0 °F 64% 30.04 in 10.0 mi WSW 5.8 mph - N/A   Scattered Clouds
11:51 AM 72.0 °F 55.9 °F 57% 30.06 in 10.0 mi Variable 3.5 mph - N/A   Mostly Cloudy
12:51 PM 73.9 °F 55.9 °F 53% 30.06 in 10.0 mi Variable 4.6 mph - N/A   Scattered Clouds
1:51 PM 75.9 °F 55.0 °F 48% 30.05 in 10.0 mi WSW 4.6 mph 16.1 mph N/A   Scattered Clouds
2:51 PM 75.9 °F 55.0 °F 48% 30.05 in 10.0 mi Variable 6.9 mph - N/A   Scattered Clouds
3:51 PM 73.9 °F 55.9 °F 53% 30.06 in 10.0 mi WNW 9.2 mph 18.4 mph N/A   Mostly Cloudy
4:51 PM 77.0 °F 55.0 °F 47% 30.04 in 10.0 mi West 9.2 mph - N/A   Clear
5:51 PM 75.9 °F 57.0 °F 52% 30.04 in 10.0 mi SW 6.9 mph - N/A   Clear
6:51 PM 75.0 °F 55.9 °F 51% 30.03 in 10.0 mi West 5.8 mph - N/A   Clear
7:51 PM 73.0 °F 55.9 °F 55% 30.04 in 10.0 mi West 5.8 mph - N/A   Clear
8:51 PM 66.0 °F 57.9 °F 75% 30.04 in 10.0 mi Calm Calm - N/A   Clear
9:51 PM 62.1 °F 57.9 °F 86% 30.06 in 10.0 mi Calm Calm - N/A   Clear
10:51 PM 61.0 °F 57.9 °F 90% 30.08 in 10.0 mi Calm Calm - N/A   Clear
11:51 PM 60.1 °F 57.0 °F 90% 30.08 in 10.0 mi Calm Calm - N/A   Clear